contact:dominique.lefevre@mio.osupytheas.fr, maurice.libes@osupytheas.fr, didier.mallarino@osupytheas.fr
Project:EMSO http://www.emso-fr.org/EMSO-France
Depth: 2436.0 m
Title:EMSO Ligure Ouest : Data MII capteur MICROCAT
DateTime_Computer,Latitude,Longitude,Temperature,Conductivity,Pressure,DateTime_Instrument
DateTime_Computer,Latitude,Longitude,degC,S m-1,dbar,DateTime_Instrument
2020-03-07T00:02:02Z,42.805,6.029,13.2967,4.59971,2469.923,2020-3-07T02:02:38Z
2020-03-07T00:05:05Z,42.805,6.029,13.2969,4.59973,2469.923,2020-3-07T02:05:42Z
2020-03-07T00:08:08Z,42.805,6.029,13.2974,4.59973,2469.947,2020-3-07T02:08:45Z
2020-03-07T00:11:12Z,42.805,6.029,13.2971,4.59972,2469.984,2020-3-07T02:11:48Z
2020-03-07T00:14:15Z,42.805,6.029,13.2974,4.59973,2469.923,2020-3-07T02:14:51Z
2020-03-07T00:17:18Z,42.805,6.029,13.2970,4.59971,2469.947,2020-3-07T02:17:55Z
2020-03-07T00:20:21Z,42.805,6.029,13.2971,4.59973,2469.923,2020-3-07T02:20:58Z
2020-03-07T00:23:24Z,42.805,6.029,13.2967,4.59971,2469.914,2020-3-07T02:24:01Z
2020-03-07T00:26:28Z,42.805,6.029,13.2970,4.59975,2469.947,2020-3-07T02:27:04Z
2020-03-07T00:29:31Z,42.805,6.029,13.2970,4.59973,2469.947,2020-3-07T02:30:07Z
2020-03-07T00:32:34Z,42.805,6.029,13.2970,4.59972,2469.937,2020-3-07T02:33:10Z
2020-03-07T00:35:37Z,42.805,6.029,13.2972,4.59973,2469.947,2020-3-07T02:36:14Z
2020-03-07T00:38:40Z,42.805,6.029,13.2970,4.59973,2469.9,2020-3-07T02:39:17Z
2020-03-07T00:41:44Z,42.805,6.029,13.2971,4.59974,2469.96,2020-3-07T02:42:20Z
2020-03-07T00:44:47Z,42.805,6.029,13.2970,4.59973,2469.937,2020-3-07T02:45:23Z
2020-03-07T00:47:50Z,42.805,6.029,13.2968,4.59975,2469.947,2020-3-07T02:48:27Z
2020-03-07T00:50:53Z,42.805,6.029,13.2968,4.59979,2469.937,2020-3-07T02:51:30Z
2020-03-07T00:53:56Z,42.805,6.029,13.2969,4.59974,2469.937,2020-3-07T02:54:33Z
2020-03-07T00:57:00Z,42.805,6.029,13.2969,4.59973,2469.97,2020-3-07T02:57:36Z
2020-03-07T01:00:03Z,42.805,6.029,13.2971,4.59972,2469.923,2020-3-07T03:00:39Z
2020-03-07T01:03:06Z,42.805,6.029,13.2971,4.59975,2469.947,2020-3-07T03:03:42Z
2020-03-07T01:06:09Z,42.805,6.029,13.2972,4.59974,2469.984,2020-3-07T03:06:46Z
2020-03-07T01:09:12Z,42.805,6.029,13.2968,4.59976,2469.984,2020-3-07T03:09:49Z
2020-03-07T01:12:16Z,42.805,6.029,13.2974,4.59975,2469.96,2020-3-07T03:12:52Z
2020-03-07T01:15:19Z,42.805,6.029,13.2970,4.59976,2469.984,2020-3-07T03:15:55Z
2020-03-07T01:18:22Z,42.805,6.029,13.2975,4.59975,2469.993,2020-3-07T03:18:58Z
2020-03-07T01:21:25Z,42.805,6.029,13.2971,4.59974,2469.937,2020-3-07T03:22:02Z
2020-03-07T01:24:28Z,42.805,6.029,13.2971,4.59976,2469.993,2020-3-07T03:25:05Z
2020-03-07T01:27:32Z,42.805,6.029,13.2971,4.59973,2469.96,2020-3-07T03:28:08Z
2020-03-07T01:30:35Z,42.805,6.029,13.2970,4.59977,2469.96,2020-3-07T03:31:11Z
2020-03-07T01:33:38Z,42.805,6.029,13.2971,4.59974,2470.007,2020-3-07T03:34:15Z
2020-03-07T01:36:41Z,42.805,6.029,13.2967,4.59975,2469.993,2020-3-07T03:37:18Z
2020-03-07T01:39:45Z,42.805,6.029,13.2967,4.59978,2470.017,2020-3-07T03:40:21Z
2020-03-07T01:42:48Z,42.805,6.029,13.2971,4.59973,2469.97,2020-3-07T03:43:25Z
2020-03-07T01:45:51Z,42.805,6.029,13.2970,4.59978,2469.984,2020-3-07T03:46:28Z
2020-03-07T01:48:54Z,42.805,6.029,13.2971,4.59974,2470.007,2020-3-07T03:49:31Z
2020-03-07T01:51:58Z,42.805,6.029,13.2968,4.59979,2469.984,2020-3-07T03:52:34Z
2020-03-07T01:55:01Z,42.805,6.029,13.2968,4.59978,2470.007,2020-3-07T03:55:37Z
2020-03-07T01:58:04Z,42.805,6.029,13.2972,4.59972,2469.984,2020-3-07T03:58:41Z
2020-03-07T02:01:07Z,42.805,6.029,13.2969,4.59971,2469.993,2020-3-07T04:01:44Z
2020-03-07T02:04:11Z,42.805,6.029,13.2974,4.59975,2469.97,2020-3-07T04:04:47Z
2020-03-07T02:07:14Z,42.805,6.029,13.2968,4.59973,2470.026,2020-3-07T04:07:50Z
2020-03-07T02:10:17Z,42.805,6.029,13.2967,4.59978,2470.017,2020-3-07T04:10:53Z
2020-03-07T02:13:20Z,42.805,6.029,13.2970,4.59973,2470.03,2020-3-07T04:13:57Z
2020-03-07T02:16:23Z,42.805,6.029,13.2971,4.59973,2470.03,2020-3-07T04:17:00Z
2020-03-07T02:19:27Z,42.805,6.029,13.2972,4.59973,2470.077,2020-3-07T04:20:03Z
2020-03-07T02:22:30Z,42.805,6.029,13.2968,4.59973,2470.053,2020-3-07T04:23:06Z
2020-03-07T02:25:33Z,42.805,6.029,13.2971,4.59973,2470.017,2020-3-07T04:26:10Z
2020-03-07T02:28:36Z,42.805,6.029,13.2969,4.59973,2470.03,2020-3-07T04:29:13Z
2020-03-07T02:31:39Z,42.805,6.029,13.2970,4.59976,2469.993,2020-3-07T04:32:16Z
2020-03-07T02:34:43Z,42.805,6.029,13.2968,4.59972,2470.017,2020-3-07T04:35:19Z
2020-03-07T02:37:46Z,42.805,6.029,13.2969,4.59971,2470.017,2020-3-07T04:38:22Z
2020-03-07T02:40:49Z,42.805,6.029,13.2968,4.59972,2470.017,2020-3-07T04:41:26Z
2020-03-07T02:43:52Z,42.805,6.029,13.2970,4.59976,2470.04,2020-3-07T04:44:29Z
2020-03-07T02:46:55Z,42.805,6.029,13.2969,4.59973,2470.087,2020-3-07T04:47:32Z
2020-03-07T02:49:59Z,42.805,6.029,13.2971,4.59974,2470.03,2020-3-07T04:50:35Z
2020-03-07T02:53:02Z,42.805,6.029,13.2971,4.59973,2470.077,2020-3-07T04:53:38Z
2020-03-07T02:56:05Z,42.805,6.029,13.2970,4.59973,2470.077,2020-3-07T04:56:42Z
2020-03-07T02:59:08Z,42.805,6.029,13.2972,4.59973,2470.087,2020-3-07T04:59:45Z
2020-03-07T03:02:12Z,42.805,6.029,13.2968,4.59972,2470.063,2020-3-07T05:02:48Z
2020-03-07T03:05:15Z,42.805,6.029,13.2974,4.59971,2470.063,2020-3-07T05:05:51Z
2020-03-07T03:08:18Z,42.805,6.029,13.2971,4.59973,2470.063,2020-3-07T05:08:54Z
2020-03-07T03:11:21Z,42.805,6.029,13.2971,4.59974,2470.04,2020-3-07T05:11:58Z
2020-03-07T03:14:24Z,42.805,6.029,13.2969,4.59972,2470.124,2020-3-07T05:15:01Z
2020-03-07T03:17:28Z,42.805,6.029,13.2971,4.59974,2470.1,2020-3-07T05:18:04Z
2020-03-07T03:20:31Z,42.805,6.029,13.2971,4.59973,2470.053,2020-3-07T05:21:07Z
2020-03-07T03:23:34Z,42.805,6.029,13.2968,4.59975,2470.124,2020-3-07T05:24:10Z
2020-03-07T03:26:37Z,42.805,6.029,13.2969,4.59975,2470.063,2020-3-07T05:27:14Z
2020-03-07T03:29:40Z,42.805,6.029,13.2968,4.59973,2470.087,2020-3-07T05:30:17Z
2020-03-07T03:32:43Z,42.805,6.029,13.2968,4.59975,2470.11,2020-3-07T05:33:20Z
2020-03-07T03:35:47Z,42.805,6.029,13.2969,4.59974,2470.11,2020-3-07T05:36:23Z
2020-03-07T03:38:50Z,42.805,6.029,13.2969,4.59974,2470.087,2020-3-07T05:39:26Z
2020-03-07T03:41:53Z,42.805,6.029,13.2969,4.59973,2470.133,2020-3-07T05:42:30Z
2020-03-07T03:44:56Z,42.805,6.029,13.2971,4.59974,2470.124,2020-3-07T05:45:33Z
2020-03-07T03:47:59Z,42.805,6.029,13.2973,4.59974,2470.087,2020-3-07T05:48:36Z
2020-03-07T03:51:03Z,42.805,6.029,13.2970,4.59973,2470.063,2020-3-07T05:51:39Z
2020-03-07T03:54:06Z,42.805,6.029,13.2969,4.59973,2470.133,2020-3-07T05:54:42Z
2020-03-07T03:57:09Z,42.805,6.029,13.2973,4.59973,2470.124,2020-3-07T05:57:46Z
2020-03-07T04:00:12Z,42.805,6.029,13.2968,4.59976,2470.087,2020-3-07T06:00:49Z
2020-03-07T04:03:15Z,42.805,6.029,13.2971,4.59975,2470.11,2020-3-07T06:03:52Z
2020-03-07T04:06:19Z,42.805,6.029,13.2971,4.59973,2470.11,2020-3-07T06:06:55Z
2020-03-07T04:09:22Z,42.805,6.029,13.2970,4.59973,2470.124,2020-3-07T06:09:58Z
2020-03-07T04:12:25Z,42.805,6.029,13.2966,4.59973,2470.124,2020-3-07T06:13:02Z
2020-03-07T04:15:28Z,42.805,6.029,13.2971,4.59973,2470.147,2020-3-07T06:16:05Z
2020-03-07T04:18:31Z,42.805,6.029,13.2970,4.59973,2470.147,2020-3-07T06:19:08Z
2020-03-07T04:21:35Z,42.805,6.029,13.2967,4.59973,2470.171,2020-3-07T06:22:11Z
2020-03-07T04:24:38Z,42.805,6.029,13.2970,4.59976,2470.133,2020-3-07T06:25:14Z
2020-03-07T04:27:41Z,42.805,6.029,13.2970,4.59976,2470.124,2020-3-07T06:28:18Z
2020-03-07T04:30:44Z,42.805,6.029,13.2968,4.59973,2470.147,2020-3-07T06:31:21Z
2020-03-07T04:33:48Z,42.805,6.029,13.2973,4.59975,2470.133,2020-3-07T06:34:24Z
2020-03-07T04:36:51Z,42.805,6.029,13.2970,4.59976,2470.133,2020-3-07T06:37:27Z
2020-03-07T04:39:54Z,42.805,6.029,13.2969,4.59974,2470.11,2020-3-07T06:40:30Z
2020-03-07T04:42:57Z,42.805,6.029,13.2969,4.59973,2470.124,2020-3-07T06:43:34Z
2020-03-07T04:46:00Z,42.805,6.029,13.2974,4.59973,2470.147,2020-3-07T06:46:37Z
2020-03-07T04:49:04Z,42.805,6.029,13.2974,4.59974,2470.11,2020-3-07T06:49:40Z
2020-03-07T04:52:07Z,42.805,6.029,13.2987,4.59978,2470.133,2020-3-07T06:52:43Z
2020-03-07T04:55:10Z,42.805,6.029,13.2975,4.59979,2470.171,2020-3-07T06:55:47Z
2020-03-07T04:58:13Z,42.805,6.029,13.2975,4.59973,2470.133,2020-3-07T06:58:50Z
2020-03-07T05:01:17Z,42.805,6.029,13.2971,4.59974,2470.133,2020-3-07T07:01:53Z
2020-03-07T05:04:20Z,42.805,6.029,13.2977,4.59976,2470.156,2020-3-07T07:04:56Z
2020-03-07T05:07:23Z,42.805,6.029,13.2970,4.59980,2470.11,2020-3-07T07:08:00Z
2020-03-07T05:10:27Z,42.805,6.029,13.2971,4.59975,2470.133,2020-3-07T07:11:03Z
2020-03-07T05:13:30Z,42.805,6.029,13.2974,4.59974,2470.156,2020-3-07T07:14:06Z
2020-03-07T05:16:33Z,42.805,6.029,13.2974,4.59978,2470.194,2020-3-07T07:17:09Z
2020-03-07T05:19:36Z,42.805,6.029,13.2981,4.59973,2470.171,2020-3-07T07:20:13Z
2020-03-07T05:22:39Z,42.805,6.029,13.2971,4.59976,2470.18,2020-3-07T07:23:16Z
2020-03-07T05:25:43Z,42.805,6.029,13.2973,4.59979,2470.194,2020-3-07T07:26:19Z
2020-03-07T05:28:46Z,42.805,6.029,13.2973,4.59974,2470.18,2020-3-07T07:29:22Z
2020-03-07T05:31:49Z,42.805,6.029,13.2968,4.59974,2470.156,2020-3-07T07:32:26Z
2020-03-07T05:34:52Z,42.805,6.029,13.2970,4.59973,2470.133,2020-3-07T07:35:29Z
2020-03-07T05:37:56Z,42.805,6.029,13.2970,4.59972,2470.147,2020-3-07T07:38:32Z
2020-03-07T05:40:59Z,42.805,6.029,13.2971,4.59973,2470.147,2020-3-07T07:41:35Z
2020-03-07T05:44:02Z,42.805,6.029,13.2980,4.59976,2470.18,2020-3-07T07:44:39Z
2020-03-07T05:47:05Z,42.805,6.029,13.2977,4.59977,2470.156,2020-3-07T07:47:42Z
2020-03-07T05:50:08Z,42.805,6.029,13.2973,4.59974,2470.194,2020-3-07T07:50:45Z
2020-03-07T05:53:12Z,42.805,6.029,13.2970,4.59979,2470.171,2020-3-07T07:53:48Z
2020-03-07T05:56:15Z,42.805,6.029,13.2972,4.59974,2470.133,2020-3-07T07:56:51Z
2020-03-07T05:59:18Z,42.805,6.029,13.2975,4.59974,2470.133,2020-3-07T07:59:55Z
2020-03-07T06:02:21Z,42.805,6.029,13.2971,4.59974,2470.171,2020-3-07T08:02:58Z
2020-03-07T06:05:24Z,42.805,6.029,13.2971,4.59974,2470.156,2020-3-07T08:06:01Z
2020-03-07T06:08:28Z,42.805,6.029,13.2969,4.59973,2470.147,2020-3-07T08:09:04Z
2020-03-07T06:11:31Z,42.805,6.029,13.2974,4.59974,2470.133,2020-3-07T08:12:07Z
2020-03-07T06:14:34Z,42.805,6.029,13.2974,4.59974,2470.171,2020-3-07T08:15:10Z
2020-03-07T06:17:37Z,42.805,6.029,13.2979,4.59980,2470.124,2020-3-07T08:18:14Z
2020-03-07T06:20:40Z,42.805,6.029,13.2983,4.59978,2470.156,2020-3-07T08:21:17Z
2020-03-07T06:23:44Z,42.805,6.029,13.2973,4.59973,2470.147,2020-3-07T08:24:20Z
2020-03-07T06:26:47Z,42.805,6.029,13.2983,4.59984,2470.194,2020-3-07T08:27:23Z
2020-03-07T06:29:50Z,42.805,6.029,13.2984,4.59997,2470.156,2020-3-07T08:30:27Z
2020-03-07T06:32:53Z,42.805,6.029,13.2985,4.59984,2470.171,2020-3-07T08:33:30Z
2020-03-07T06:35:56Z,42.805,6.029,13.2988,4.60015,2470.147,2020-3-07T08:36:33Z
2020-03-07T06:39:00Z,42.805,6.029,13.2986,4.59989,2470.147,2020-3-07T08:39:36Z
2020-03-07T06:42:03Z,42.805,6.029,13.2993,4.59996,2470.133,2020-3-07T08:42:39Z
2020-03-07T06:45:06Z,42.805,6.029,13.2982,4.59991,2470.147,2020-3-07T08:45:43Z
2020-03-07T06:48:10Z,42.805,6.029,13.2973,4.60007,2470.171,2020-3-07T08:48:46Z
2020-03-07T06:51:13Z,42.805,6.029,13.2991,4.59990,2470.194,2020-3-07T08:51:49Z
2020-03-07T06:54:16Z,42.805,6.029,13.2989,4.59996,2470.194,2020-3-07T08:54:52Z
2020-03-07T06:57:19Z,42.805,6.029,13.2993,4.60020,2470.194,2020-3-07T08:57:56Z
2020-03-07T07:00:22Z,42.805,6.029,13.2996,4.60002,2470.11,2020-3-07T09:00:59Z
2020-03-07T07:03:26Z,42.805,6.029,13.2993,4.60016,2470.133,2020-3-07T09:04:02Z
2020-03-07T07:06:29Z,42.805,6.029,13.2992,4.60016,2470.11,2020-3-07T09:07:05Z
2020-03-07T07:09:32Z,42.805,6.029,13.2993,4.60016,2470.147,2020-3-07T09:10:09Z
2020-03-07T07:12:35Z,42.805,6.029,13.2993,4.60016,2470.133,2020-3-07T09:13:12Z
2020-03-07T07:15:38Z,42.805,6.029,13.2995,4.60014,2470.133,2020-3-07T09:16:15Z
2020-03-07T07:18:42Z,42.805,6.029,13.2995,4.60019,2470.11,2020-3-07T09:19:18Z
2020-03-07T07:21:45Z,42.805,6.029,13.2989,4.60026,2470.11,2020-3-07T09:22:21Z
2020-03-07T07:24:48Z,42.805,6.029,13.2999,4.60027,2470.133,2020-3-07T09:25:25Z
2020-03-07T07:27:51Z,42.805,6.029,13.2990,4.60019,2470.171,2020-3-07T09:28:28Z
2020-03-07T07:30:54Z,42.805,6.029,13.2997,4.60030,2470.147,2020-3-07T09:31:31Z
2020-03-07T07:33:58Z,42.805,6.029,13.2995,4.60013,2470.133,2020-3-07T09:34:34Z
2020-03-07T07:37:01Z,42.805,6.029,13.2980,4.59994,2470.11,2020-3-07T09:37:37Z
2020-03-07T07:40:04Z,42.805,6.029,13.2996,4.60003,2470.133,2020-3-07T09:40:41Z
2020-03-07T07:43:07Z,42.805,6.029,13.2995,4.60019,2470.124,2020-3-07T09:43:44Z
2020-03-07T07:46:11Z,42.805,6.029,13.2992,4.59999,2470.11,2020-3-07T09:46:47Z
2020-03-07T07:49:14Z,42.805,6.029,13.3000,4.60031,2470.147,2020-3-07T09:49:50Z
2020-03-07T07:52:17Z,42.805,6.029,13.2996,4.60009,2470.124,2020-3-07T09:52:54Z
2020-03-07T07:55:20Z,42.805,6.029,13.2986,4.60007,2470.1,2020-3-07T09:55:57Z
2020-03-07T07:58:24Z,42.805,6.029,13.2986,4.60036,2470.124,2020-3-07T09:59:00Z
2020-03-07T08:01:27Z,42.805,6.029,13.2992,4.59999,2470.11,2020-3-07T10:02:03Z
2020-03-07T08:04:30Z,42.805,6.029,13.3000,4.60024,2470.11,2020-3-07T10:05:06Z
2020-03-07T08:07:33Z,42.805,6.029,13.2993,4.60014,2470.087,2020-3-07T10:08:10Z
2020-03-07T08:10:36Z,42.805,6.029,13.3000,4.60024,2470.053,2020-3-07T10:11:13Z
2020-03-07T08:13:40Z,42.805,6.029,13.2985,4.60033,2470.1,2020-3-07T10:14:16Z
2020-03-07T08:16:43Z,42.805,6.029,13.3009,4.59995,2470.077,2020-3-07T10:17:19Z
2020-03-07T08:19:46Z,42.805,6.029,13.2984,4.60013,2470.124,2020-3-07T10:20:23Z
2020-03-07T08:22:49Z,42.805,6.029,13.2989,4.60039,2470.124,2020-3-07T10:23:26Z
2020-03-07T08:25:53Z,42.805,6.029,13.2985,4.60017,2470.11,2020-3-07T10:26:29Z
2020-03-07T08:28:56Z,42.805,6.029,13.2987,4.60044,2470.087,2020-3-07T10:29:32Z
2020-03-07T08:31:59Z,42.805,6.029,13.2991,4.60029,2470.1,2020-3-07T10:32:36Z
2020-03-07T08:35:02Z,42.805,6.029,13.2990,4.60019,2470.087,2020-3-07T10:35:39Z
2020-03-07T08:38:05Z,42.805,6.029,13.2999,4.60008,2470.11,2020-3-07T10:38:42Z
2020-03-07T08:41:09Z,42.805,6.029,13.3000,4.60034,2470.124,2020-3-07T10:41:45Z
2020-03-07T08:44:12Z,42.805,6.029,13.2987,4.60023,2470.087,2020-3-07T10:44:48Z
2020-03-07T08:47:15Z,42.805,6.029,13.3000,4.60044,2470.077,2020-3-07T10:47:52Z
2020-03-07T08:50:18Z,42.805,6.029,13.2983,4.60009,2470.124,2020-3-07T10:50:55Z
2020-03-07T08:53:22Z,42.805,6.029,13.2985,4.60011,2470.063,2020-3-07T10:53:58Z
2020-03-07T08:56:25Z,42.805,6.029,13.2982,4.60025,2470.087,2020-3-07T10:57:01Z
2020-03-07T08:59:28Z,42.805,6.029,13.2986,4.60037,2470.1,2020-3-07T11:00:05Z
2020-03-07T09:02:32Z,42.805,6.029,13.2983,4.60016,2470.087,2020-3-07T11:03:08Z
2020-03-07T09:05:35Z,42.805,6.029,13.2991,4.60013,2470.087,2020-3-07T11:06:11Z
2020-03-07T09:08:38Z,42.805,6.029,13.2984,4.60031,2470.1,2020-3-07T11:09:15Z
2020-03-07T09:11:42Z,42.805,6.029,13.2983,4.60023,2470.1,2020-3-07T11:12:18Z
2020-03-07T09:14:45Z,42.805,6.029,13.2985,4.60009,2470.04,2020-3-07T11:15:21Z
2020-03-07T09:17:48Z,42.805,6.029,13.2974,4.60026,2470.1,2020-3-07T11:18:25Z
2020-03-07T09:20:51Z,42.805,6.029,13.2977,4.60019,2470.04,2020-3-07T11:21:28Z
2020-03-07T09:23:55Z,42.805,6.029,13.2982,4.60007,2470.077,2020-3-07T11:24:31Z
2020-03-07T09:26:58Z,42.805,6.029,13.2991,4.60022,2470.04,2020-3-07T11:27:34Z
2020-03-07T09:30:01Z,42.805,6.029,13.2989,4.60032,2470.053,2020-3-07T11:30:37Z
2020-03-07T09:33:04Z,42.805,6.029,13.2994,4.60031,2470.053,2020-3-07T11:33:41Z
2020-03-07T09:36:07Z,42.805,6.029,13.3011,4.60033,2470.053,2020-3-07T11:36:44Z
2020-03-07T09:39:11Z,42.805,6.029,13.2993,4.60035,2470.053,2020-3-07T11:39:47Z
2020-03-07T09:42:14Z,42.805,6.029,13.2983,4.60019,2470.087,2020-3-07T11:42:50Z
2020-03-07T09:45:17Z,42.805,6.029,13.3001,4.60012,2470.03,2020-3-07T11:45:54Z
2020-03-07T09:48:20Z,42.805,6.029,13.2980,4.60031,2470.017,2020-3-07T11:48:57Z
2020-03-07T09:51:23Z,42.805,6.029,13.2999,4.60036,2470.017,2020-3-07T11:52:00Z
2020-03-07T09:54:27Z,42.805,6.029,13.2990,4.60025,2470.063,2020-3-07T11:55:03Z
2020-03-07T09:57:30Z,42.805,6.029,13.2979,4.60010,2470.04,2020-3-07T11:58:06Z
2020-03-07T10:00:33Z,42.805,6.029,13.2981,4.60019,2470.053,2020-3-07T12:01:10Z
2020-03-07T10:03:36Z,42.805,6.029,13.2983,4.60008,2470.063,2020-3-07T12:04:13Z
2020-03-07T10:06:40Z,42.805,6.029,13.2976,4.60004,2470.053,2020-3-07T12:07:16Z
2020-03-07T10:09:44Z,42.805,6.029,13.2988,4.60004,2470.03,2020-3-07T12:10:20Z
2020-03-07T10:12:47Z,42.805,6.029,13.2989,4.60020,2470.04,2020-3-07T12:13:23Z
2020-03-07T10:15:50Z,42.805,6.029,13.2995,4.60014,2470.017,2020-3-07T12:16:27Z
2020-03-07T10:18:53Z,42.805,6.029,13.2976,4.60019,2470.04,2020-3-07T12:19:30Z
2020-03-07T10:21:56Z,42.805,6.029,13.2981,4.60003,2470.053,2020-3-07T12:22:33Z
2020-03-07T10:25:00Z,42.805,6.029,13.2984,4.60010,2470.063,2020-3-07T12:25:36Z
2020-03-07T10:28:03Z,42.805,6.029,13.2991,4.60027,2470.063,2020-3-07T12:28:39Z
2020-03-07T10:31:06Z,42.805,6.029,13.2998,4.60026,2470.007,2020-3-07T12:31:43Z
2020-03-07T10:34:09Z,42.805,6.029,13.2982,4.60019,2469.993,2020-3-07T12:34:46Z
2020-03-07T10:37:13Z,42.805,6.029,13.2981,4.60014,2469.993,2020-3-07T12:37:49Z
2020-03-07T10:40:16Z,42.805,6.029,13.2992,4.60042,2469.984,2020-3-07T12:40:52Z
2020-03-07T10:43:19Z,42.805,6.029,13.2982,4.60007,2470.03,2020-3-07T12:43:55Z
2020-03-07T10:46:22Z,42.805,6.029,13.2982,4.60050,2469.993,2020-3-07T12:46:59Z
2020-03-07T10:49:25Z,42.805,6.029,13.2990,4.60023,2470.017,2020-3-07T12:50:02Z
2020-03-07T10:52:29Z,42.805,6.029,13.2983,4.60024,2470.007,2020-3-07T12:53:05Z
2020-03-07T10:55:32Z,42.805,6.029,13.2991,4.60025,2469.993,2020-3-07T12:56:08Z
2020-03-07T10:58:35Z,42.805,6.029,13.2986,4.60050,2469.984,2020-3-07T12:59:12Z
2020-03-07T11:01:38Z,42.805,6.029,13.2991,4.60035,2470.007,2020-3-07T13:02:15Z
2020-03-07T11:04:42Z,42.805,6.029,13.2980,4.60050,2470.017,2020-3-07T13:05:18Z
2020-03-07T11:07:45Z,42.805,6.029,13.2991,4.60027,2469.993,2020-3-07T13:08:21Z
2020-03-07T11:10:48Z,42.805,6.029,13.2991,4.60024,2470.007,2020-3-07T13:11:24Z
2020-03-07T11:13:51Z,42.805,6.029,13.2976,4.59999,2470.007,2020-3-07T13:14:28Z
2020-03-07T11:16:55Z,42.805,6.029,13.2990,4.60043,2469.947,2020-3-07T13:17:31Z
2020-03-07T11:19:58Z,42.805,6.029,13.2990,4.60049,2470.007,2020-3-07T13:20:34Z
2020-03-07T11:23:01Z,42.805,6.029,13.2976,4.60052,2469.97,2020-3-07T13:23:38Z
2020-03-07T11:26:04Z,42.805,6.029,13.3006,4.60050,2469.984,2020-3-07T13:26:41Z
2020-03-07T11:29:08Z,42.805,6.029,13.3022,4.60046,2469.993,2020-3-07T13:29:44Z
2020-03-07T11:32:11Z,42.805,6.029,13.2977,4.60026,2469.97,2020-3-07T13:32:47Z
2020-03-07T11:35:14Z,42.805,6.029,13.2989,4.60046,2469.947,2020-3-07T13:35:51Z
2020-03-07T11:38:17Z,42.805,6.029,13.3006,4.60026,2469.947,2020-3-07T13:38:54Z
2020-03-07T11:41:21Z,42.805,6.029,13.2977,4.60025,2469.97,2020-3-07T13:41:57Z
2020-03-07T11:44:24Z,42.805,6.029,13.2984,4.60042,2469.947,2020-3-07T13:45:00Z
2020-03-07T11:47:27Z,42.805,6.029,13.2982,4.60044,2469.984,2020-3-07T13:48:04Z
2020-03-07T11:50:30Z,42.805,6.029,13.2976,4.60024,2469.947,2020-3-07T13:51:07Z
2020-03-07T11:53:33Z,42.805,6.029,13.2982,4.60031,2469.947,2020-3-07T13:54:10Z
2020-03-07T11:56:37Z,42.805,6.029,13.2985,4.60000,2469.937,2020-3-07T13:57:13Z
2020-03-07T11:59:40Z,42.805,6.029,13.2984,4.60015,2469.923,2020-3-07T14:00:16Z
2020-03-07T12:02:43Z,42.805,6.029,13.2980,4.60039,2469.96,2020-3-07T14:03:20Z
2020-03-07T12:05:46Z,42.805,6.029,13.2985,4.60037,2469.97,2020-3-07T14:06:23Z
2020-03-07T12:08:49Z,42.805,6.029,13.2992,4.60040,2469.96,2020-3-07T14:09:26Z
2020-03-07T12:11:53Z,42.805,6.029,13.2991,4.60036,2469.984,2020-3-07T14:12:29Z
2020-03-07T12:14:56Z,42.805,6.029,13.2983,4.60019,2469.984,2020-3-07T14:15:32Z
2020-03-07T12:17:59Z,42.805,6.029,13.2987,4.59998,2469.984,2020-3-07T14:18:36Z
2020-03-07T12:21:02Z,42.805,6.029,13.3000,4.60051,2469.923,2020-3-07T14:21:39Z
2020-03-07T12:24:05Z,42.805,6.029,13.2993,4.60010,2469.984,2020-3-07T14:24:42Z
2020-03-07T12:27:09Z,42.805,6.029,13.2997,4.60019,2469.96,2020-3-07T14:27:45Z
2020-03-07T12:30:12Z,42.805,6.029,13.2985,4.60041,2469.97,2020-3-07T14:30:49Z
2020-03-07T12:33:15Z,42.805,6.029,13.2977,4.60039,2469.947,2020-3-07T14:33:52Z
2020-03-07T12:36:18Z,42.805,6.029,13.2988,4.60075,2469.947,2020-3-07T14:36:55Z
2020-03-07T12:39:22Z,42.805,6.029,13.3015,4.60081,2469.923,2020-3-07T14:39:58Z
2020-03-07T12:42:25Z,42.805,6.029,13.2990,4.60099,2469.947,2020-3-07T14:43:01Z
2020-03-07T12:45:28Z,42.805,6.029,13.2999,4.60087,2469.97,2020-3-07T14:46:05Z
2020-03-07T12:48:31Z,42.805,6.029,13.3014,4.60054,2469.937,2020-3-07T14:49:08Z
2020-03-07T12:51:35Z,42.805,6.029,13.3024,4.60010,2469.947,2020-3-07T14:52:11Z
2020-03-07T12:54:38Z,42.805,6.029,13.2993,4.60026,2469.96,2020-3-07T14:55:14Z
2020-03-07T12:57:41Z,42.805,6.029,13.3008,4.60057,2469.937,2020-3-07T14:58:18Z
2020-03-07T13:00:45Z,42.805,6.029,13.3014,4.60021,2469.947,2020-3-07T15:01:21Z
2020-03-07T13:03:48Z,42.805,6.029,13.2996,4.60025,2469.923,2020-3-07T15:04:24Z
2020-03-07T13:06:51Z,42.805,6.029,13.3015,4.60029,2469.937,2020-3-07T15:07:28Z
2020-03-07T13:09:54Z,42.805,6.029,13.3036,4.60078,2469.96,2020-3-07T15:10:31Z
2020-03-07T13:12:58Z,42.805,6.029,13.3006,4.60059,2469.96,2020-3-07T15:13:34Z
2020-03-07T13:16:01Z,42.805,6.029,13.3022,4.60044,2469.96,2020-3-07T15:16:37Z
2020-03-07T13:19:04Z,42.805,6.029,13.2997,4.60050,2469.96,2020-3-07T15:19:41Z
2020-03-07T13:22:07Z,42.805,6.029,13.3001,4.60031,2469.96,2020-3-07T15:22:44Z
2020-03-07T13:25:11Z,42.805,6.029,13.3009,4.60037,2469.96,2020-3-07T15:25:47Z
2020-03-07T13:28:14Z,42.805,6.029,13.3004,4.60025,2469.923,2020-3-07T15:28:50Z
2020-03-07T13:31:17Z,42.805,6.029,13.2982,4.60121,2469.947,2020-3-07T15:31:54Z
2020-03-07T13:34:20Z,42.805,6.029,13.2998,4.60076,2469.937,2020-3-07T15:34:57Z
2020-03-07T13:37:24Z,42.805,6.029,13.3011,4.60055,2469.97,2020-3-07T15:38:00Z
2020-03-07T13:40:27Z,42.805,6.029,13.3023,4.60099,2469.984,2020-3-07T15:41:03Z
2020-03-07T13:43:30Z,42.805,6.029,13.3002,4.60075,2469.947,2020-3-07T15:44:07Z
2020-03-07T13:46:33Z,42.805,6.029,13.3022,4.60044,2469.96,2020-3-07T15:47:10Z
2020-03-07T13:49:37Z,42.805,6.029,13.3059,4.60014,2469.947,2020-3-07T15:50:13Z
2020-03-07T13:52:40Z,42.805,6.029,13.3039,4.60009,2469.984,2020-3-07T15:53:16Z
2020-03-07T13:55:43Z,42.805,6.029,13.3031,4.60007,2469.947,2020-3-07T15:56:20Z
2020-03-07T13:58:46Z,42.805,6.029,13.3006,4.60013,2469.984,2020-3-07T15:59:23Z
2020-03-07T14:01:49Z,42.805,6.029,13.2996,4.60014,2470.007,2020-3-07T16:02:26Z
2020-03-07T14:04:53Z,42.805,6.029,13.2992,4.60009,2470.007,2020-3-07T16:05:29Z
2020-03-07T14:07:56Z,42.805,6.029,13.2995,4.59993,2469.96,2020-3-07T16:08:32Z
2020-03-07T14:10:59Z,42.805,6.029,13.3045,4.60010,2469.97,2020-3-07T16:11:36Z
2020-03-07T14:14:02Z,42.805,6.029,13.3050,4.60012,2469.96,2020-3-07T16:14:39Z
2020-03-07T14:17:05Z,42.805,6.029,13.3034,4.60044,2469.947,2020-3-07T16:17:42Z
2020-03-07T14:20:09Z,42.805,6.029,13.3033,4.60004,2469.951,2020-3-07T16:20:45Z
2020-03-07T14:23:12Z,42.805,6.029,13.3040,4.59996,2469.974,2020-3-07T16:23:48Z
2020-03-07T14:26:15Z,42.805,6.029,13.3033,4.59998,2469.96,2020-3-07T16:26:52Z
2020-03-07T14:29:18Z,42.805,6.029,13.3031,4.60002,2469.96,2020-3-07T16:29:55Z
2020-03-07T14:32:22Z,42.805,6.029,13.3030,4.60023,2469.984,2020-3-07T16:32:58Z
2020-03-07T14:35:25Z,42.805,6.029,13.3026,4.60013,2469.984,2020-3-07T16:36:01Z
2020-03-07T14:38:28Z,42.805,6.029,13.3009,4.60006,2470.007,2020-3-07T16:39:05Z
2020-03-07T14:41:31Z,42.805,6.029,13.2993,4.60006,2469.984,2020-3-07T16:42:08Z
2020-03-07T14:44:34Z,42.805,6.029,13.2997,4.59986,2469.97,2020-3-07T16:45:11Z
2020-03-07T14:47:38Z,42.805,6.029,13.3019,4.59994,2469.993,2020-3-07T16:48:14Z
2020-03-07T14:50:41Z,42.805,6.029,13.3014,4.60003,2469.993,2020-3-07T16:51:17Z
2020-03-07T14:53:44Z,42.805,6.029,13.3019,4.60010,2470.007,2020-3-07T16:54:21Z
2020-03-07T14:56:47Z,42.805,6.029,13.3034,4.59994,2469.97,2020-3-07T16:57:24Z
2020-03-07T14:59:51Z,42.805,6.029,13.3047,4.60017,2469.97,2020-3-07T17:00:27Z
2020-03-07T15:02:54Z,42.805,6.029,13.2982,4.60052,2469.97,2020-3-07T17:03:30Z
2020-03-07T15:05:57Z,42.805,6.029,13.3000,4.60057,2470.007,2020-3-07T17:06:34Z
2020-03-07T15:09:00Z,42.805,6.029,13.3009,4.60030,2470.03,2020-3-07T17:09:37Z
2020-03-07T15:12:03Z,42.805,6.029,13.3039,4.60049,2470.053,2020-3-07T17:12:40Z
2020-03-07T15:15:07Z,42.805,6.029,13.3014,4.60042,2469.993,2020-3-07T17:15:43Z